| time (UTC) | temp C | wind direction | speed KPH | gust KPH | rain 1hr cm | rain 24hr cm | rain mn cm | humidity % | barometer mb |
| 20260505111903 | 12 | 69 | 25.7 | 40.2 | 0.00 | 0.23 | 0.23 | 52 | 1005.8 |
| 20260505111403 | 12 | 67 | 22.5 | 38.6 | 0.00 | 0.23 | 0.23 | 53 | 1005.7 |
| 20260505110902 | 12 | 59 | 17.7 | 57.9 | 0.00 | 0.23 | 0.23 | 52 | 1005.5 |
| 20260505110404 | 12 | 61 | 19.3 | 41.8 | 0.00 | 0.23 | 0.23 | 52 | 1005.4 |
| 20260505101904 | 12 | 68 | 24.1 | 49.9 | 0.00 | 0.23 | 0.23 | 54 | 1004.5 |
| 20260505101403 | 12 | 66 | 29.0 | 49.9 | 0.00 | 0.23 | 0.23 | 54 | 1004.5 |
| 20260505100904 | 12 | 61 | 24.1 | 49.9 | 0.00 | 0.23 | 0.23 | 55 | 1004.5 |
| 20260505100405 | 12 | 43 | 19.3 | 41.8 | 0.00 | 0.23 | 0.23 | 57 | 1004.4 |
| 20260505094904 | 12 | 69 | 25.7 | 38.6 | 0.00 | 0.23 | 0.23 | 59 | 1004.4 |
| 20260505094403 | 12 | 59 | 24.1 | 38.6 | 0.00 | 0.23 | 0.23 | 59 | 1004.4 |
| 20260505093903 | 12 | 50 | 19.3 | 40.2 | 0.00 | 0.23 | 0.23 | 62 | 1004.3 |
| 20260505093405 | 12 | 51 | 25.7 | 49.9 | 0.00 | 0.23 | 0.23 | 61 | 1004.2 |
| 20260505091904 | 12 | 63 | 17.7 | 35.4 | 0.00 | 0.23 | 0.23 | 66 | 1004.1 |
| 20260505091404 | 12 | 66 | 16.1 | 35.4 | 0.00 | 0.23 | 0.23 | 67 | 1003.9 |
| 20260505090903 | 12 | 64 | 19.3 | 27.4 | 0.00 | 0.23 | 0.23 | 67 | 1003.8 |
| 20260505084904 | 13 | 44 | 25.7 | 40.2 | 0.00 | 0.23 | 0.23 | 71 | 1003.7 |
| 20260505084403 | 13 | 51 | 17.7 | 33.8 | 0.00 | 0.23 | 0.23 | 74 | 1003.7 |
| 20260505083903 | 13 | 32 | 20.9 | 33.8 | 0.00 | 0.23 | 0.23 | 73 | 1003.5 |
| 20260505083404 | 13 | 66 | 16.1 | 40.2 | 0.00 | 0.23 | 0.23 | 73 | 1003.3 |
| 20260505081402 | 13 | 48 | 22.5 | 37.0 | 0.00 | 0.23 | 0.23 | 77 | 1002.7 |
| 20260505080903 | 14 | 66 | 19.3 | 29.0 | 0.00 | 0.23 | 0.23 | 79 | 1002.4 |
| 20260505080404 | 14 | 61 | 16.1 | 38.6 | 0.00 | 0.23 | 0.23 | 80 | 1002.4 |
| 20260505074905 | 14 | 65 | 19.3 | 29.0 | 0.00 | 0.23 | 0.23 | 82 | 1002.4 |
| 20260505073903 | 14 | 42 | 20.9 | 33.8 | 0.03 | 0.23 | 0.23 | 82 | 1002.2 |
| 20260505073404 | 14 | 47 | 19.3 | 33.8 | 0.03 | 0.23 | 0.23 | 83 | 1002.3 |
| 20260505071904 | 15 | 51 | 16.1 | 24.1 | 0.08 | 0.23 | 0.23 | 83 | 1002.0 |
| 20260505070903 | 15 | 56 | 14.5 | 27.4 | 0.08 | 0.23 | 0.23 | 83 | 1002.0 |
| 20260505064903 | 16 | 50 | 20.9 | 29.0 | 0.08 | 0.23 | 0.23 | 81 | 1001.9 |
| 20260505064403 | 16 | 19 | 14.5 | 22.5 | 0.08 | 0.23 | 0.23 | 79 | 1001.7 |
| 20260505063903 | 16 | 65 | 9.7 | 25.7 | 0.05 | 0.20 | 0.20 | 77 | 1001.6 |
| 20260505063404 | 17 | 93 | 12.9 | 25.7 | 0.05 | 0.20 | 0.20 | 75 | 1001.5 |
| 20260505061906 | 18 | 316 | 3.2 | 11.3 | 0.00 | 0.15 | 0.15 | 83 | 1001.6 |
| 20260505060903 | 18 | 83 | 4.8 | 9.7 | 0.03 | 0.15 | 0.15 | 83 | 1000.7 |
| 20260505060404 | 18 | 72 | 4.8 | 16.1 | 0.10 | 0.15 | 0.15 | 83 | 1000.8 |
| 20260505053903 | 19 | 53 | 16.1 | 20.9 | 0.15 | 0.15 | 0.15 | 83 | 1000.6 |
| 20260505051904 | 20 | 48 | 1.6 | 8.0 | 0.15 | 0.15 | 0.15 | 78 | 1000.1 |
| 20260505051403 | 20 | 111 | 4.8 | 11.3 | 0.15 | 0.15 | 0.15 | 75 | 1000.2 |
| 20260505050403 | 21 | 155 | 1.6 | 9.7 | 0.05 | 0.05 | 0.05 | 72 | 1000.5 |
| 20260505041404 | 22 | 103 | 0.0 | 3.2 | 0.00 | 0.00 | 0.00 | 62 | 999.8 |
| 20260505040903 | 22 | 173 | 1.6 | 11.3 | 0.00 | 0.00 | 0.00 | 62 | 999.8 |
| 20260505040404 | 22 | 157 | 1.6 | 8.0 | 0.00 | 0.00 | 0.00 | 62 | 999.9 |
| 20260505034904 | 22 | 92 | 1.6 | 8.0 | 0.00 | 0.00 | 0.00 | 61 | 999.8 |
| 20260505034404 | 22 | 73 | 3.2 | 8.0 | 0.00 | 0.00 | 0.00 | 60 | 999.8 |
| 20260505033903 | 22 | 81 | 4.8 | 11.3 | 0.00 | 0.00 | 0.00 | 60 | 999.8 |
| 20260505033404 | 22 | 87 | 8.0 | 14.5 | 0.00 | 0.00 | 0.00 | 60 | 999.9 |
| 20260505031904 | 22 | 98 | 3.2 | 8.0 | 0.00 | 0.00 | 0.00 | 58 | 1000.3 |
| 20260505030904 | 23 | 93 | 4.8 | 16.1 | 0.00 | 0.00 | 0.00 | 57 | 999.9 |
| 20260505024903 | 23 | 123 | 8.0 | 14.5 | 0.00 | 0.00 | 0.00 | 56 | 1000.2 |
| 20260505024403 | 23 | 150 | 4.8 | 11.3 | 0.00 | 0.00 | 0.00 | 56 | 1000.1 |
| 20260505023904 | 23 | 107 | 3.2 | 9.7 | 0.00 | 0.00 | 0.00 | 55 | 1000.0 |
| 20260505023404 | 23 | 124 | 4.8 | 16.1 | 0.00 | 0.00 | 0.00 | 55 | 999.9 |
| 20260505021904 | 23 | 149 | 3.2 | 11.3 | 0.00 | 0.00 | 0.00 | 53 | 1000.0 |
| 20260505021403 | 23 | 120 | 8.0 | 20.9 | 0.00 | 0.00 | 0.00 | 52 | 1000.0 |
| 20260505020903 | 23 | 122 | 8.0 | 20.9 | 0.00 | 0.00 | 0.00 | 52 | 1000.1 |
| 20260505020404 | 23 | 198 | 8.0 | 20.9 | 0.00 | 0.00 | 0.00 | 51 | 1000.3 |
| 20260505014905 | 23 | 162 | 8.0 | 16.1 | 0.00 | 0.00 | 0.00 | 50 | 1000.0 |
| 20260505014404 | 24 | 144 | 4.8 | 11.3 | 0.00 | 0.00 | 0.00 | 49 | 999.6 |
| 20260505013905 | 24 | 154 | 4.8 | 14.5 | 0.00 | 0.00 | 0.00 | 49 | 999.8 |
| 20260505013404 | 24 | 129 | 8.0 | 24.1 | 0.00 | 0.00 | 0.00 | 48 | 999.5 |
| 20260505011904 | 24 | 138 | 8.0 | 14.5 | 0.00 | 0.00 | 0.00 | 46 | 999.1 |
| 20260505010903 | 25 | 118 | 4.8 | 16.1 | 0.00 | 0.00 | 0.00 | 46 | 998.9 |
| 20260505010405 | 25 | 152 | 8.0 | 25.7 | 0.00 | 0.00 | 0.00 | 45 | 998.9 |
| 20260505004404 | 25 | 141 | 3.2 | 14.5 | 0.00 | 0.00 | 0.00 | 43 | 999.0 |
| 20260505003904 | 25 | 133 | 6.4 | 20.9 | 0.00 | 0.00 | 0.00 | 43 | 999.0 |
| 20260505003404 | 25 | 138 | 8.0 | 22.5 | 0.00 | 0.00 | 0.00 | 42 | 999.0 |
| 20260505001404 | 26 | 131 | 6.4 | 14.5 | 0.00 | 0.00 | 0.00 | 40 | 999.2 |
| 20260505000904 | 26 | 148 | 8.0 | 14.5 | 0.00 | 0.00 | 0.00 | 39 | 999.3 |
| 20260505000405 | 26 | 168 | 9.7 | 24.1 | 0.00 | 0.00 | 0.00 | 39 | 999.3 |
| 20260504234904 | 26 | 135 | 14.5 | 22.5 | 0.00 | 0.00 | 0.00 | 39 | 999.4 |
| 20260504233904 | 26 | 189 | 3.2 | 20.9 | 0.00 | 0.00 | 0.00 | 39 | 999.4 |
| 20260504231904 | 27 | 175 | 9.7 | 27.4 | 0.00 | 0.00 | 0.00 | 38 | 999.3 |
| 20260504231405 | 27 | 127 | 9.7 | 22.5 | 0.00 | 0.00 | 0.00 | 38 | 999.3 |
| 20260504230904 | 27 | 155 | 8.0 | 35.4 | 0.00 | 0.00 | 0.00 | 38 | 999.2 |
| 20260504230404 | 27 | 161 | 11.3 | 35.4 | 0.00 | 0.00 | 0.00 | 37 | 999.1 |
| 20260504224405 | 27 | 150 | 14.5 | 27.4 | 0.00 | 0.00 | 0.00 | 36 | 999.1 |
| 20260504223904 | 27 | 128 | 12.9 | 22.5 | 0.00 | 0.00 | 0.00 | 36 | 999.1 |
| 20260504221903 | 28 | 166 | 11.3 | 22.5 | 0.00 | 0.00 | 0.00 | 34 | 999.1 |
| 20260504221402 | 28 | 181 | 14.5 | 29.0 | 0.00 | 0.00 | 0.00 | 34 | 999.2 |
| 20260504220902 | 28 | 167 | 11.3 | 16.1 | 0.00 | 0.00 | 0.00 | 34 | 999.1 |
| 20260504220403 | 28 | 164 | 11.3 | 27.4 | 0.00 | 0.00 | 0.00 | 33 | 999.2 |
| 20260504214904 | 29 | 185 | 12.9 | 27.4 | 0.00 | 0.00 | 0.00 | 32 | 999.3 |
| 20260504214403 | 29 | 153 | 14.5 | 35.4 | 0.00 | 0.00 | 0.00 | 32 | 999.4 |
| 20260504213903 | 30 | 131 | 11.3 | 20.9 | 0.00 | 0.00 | 0.00 | 32 | 999.3 |
| 20260504213403 | 30 | 229 | 12.9 | 41.8 | 0.00 | 0.00 | 0.00 | 31 | 999.4 |
| 20260504211905 | 31 | 226 | 16.1 | 27.4 | 0.00 | 0.00 | 0.00 | 27 | 999.4 |
| 20260504211402 | 31 | 171 | 16.1 | 22.5 | 0.00 | 0.00 | 0.00 | 27 | 999.5 |
| 20260504210903 | 31 | 141 | 11.3 | 22.5 | 0.00 | 0.00 | 0.00 | 27 | 999.5 |
| 20260504210403 | 31 | 93 | 6.4 | 24.1 | 0.00 | 0.00 | 0.00 | 28 | 999.6 |
| 20260504204404 | 31 | 240 | 8.0 | 14.5 | 0.00 | 0.00 | 0.00 | 27 | 999.9 |
| 20260504203902 | 30 | 260 | 11.3 | 24.1 | 0.00 | 0.00 | 0.00 | 26 | 999.9 |
| 20260504201902 | 30 | 263 | 16.1 | 22.5 | 0.00 | 0.00 | 0.00 | 27 | 1000.3 |
| 20260504201403 | 30 | 212 | 11.3 | 22.5 | 0.00 | 0.00 | 0.00 | 27 | 1000.4 |
| 20260504200902 | 30 | 139 | 8.0 | 16.1 | 0.00 | 0.00 | 0.00 | 26 | 1000.5 |
| 20260504200403 | 30 | 248 | 11.3 | 22.5 | 0.00 | 0.00 | 0.00 | 28 | 1000.6 |
| 20260504194902 | 29 | 257 | 8.0 | 16.1 | 0.00 | 0.00 | 0.00 | 30 | 1000.8 |
| 20260504194403 | 30 | 228 | 9.7 | 14.5 | 0.00 | 0.00 | 0.00 | 28 | 1000.9 |
| 20260504193902 | 30 | 143 | 3.2 | 12.9 | 0.00 | 0.00 | 0.00 | 29 | 1001.0 |
| 20260504191903 | 29 | 181 | 4.8 | 14.5 | 0.00 | 0.00 | 0.00 | 30 | 1001.4 |
| 20260504190903 | 27 | 19 | 4.8 | 11.3 | 0.00 | 0.00 | 0.00 | 32 | 1001.6 |
| 20260504184903 | 27 | 181 | 6.4 | 14.5 | 0.00 | 0.00 | 0.00 | 34 | 1001.7 |
| 20260504184402 | 27 | 158 | 6.4 | 20.9 | 0.00 | 0.00 | 0.00 | 32 | 1001.9 |
| 20260504183902 | 27 | 250 | 8.0 | 20.9 | 0.00 | 0.00 | 0.00 | 32 | 1002.0 |
| 20260504183403 | 27 | 161 | 4.8 | 16.1 | 0.00 | 0.00 | 0.00 | 32 | 1001.9 |
| 20260504181903 | 28 | 191 | 11.3 | 16.1 | 0.00 | 0.00 | 0.00 | 31 | 1002.0 |
| 20260504181402 | 27 | 245 | 4.8 | 22.5 | 0.00 | 0.00 | 0.00 | 32 | 1002.1 |
| 20260504180403 | 27 | 267 | 9.7 | 16.1 | 0.00 | 0.00 | 0.00 | 32 | 1002.1 |
| 20260504174402 | 27 | 230 | 11.3 | 16.1 | 0.00 | 0.00 | 0.00 | 33 | 1002.4 |
| 20260504173902 | 27 | 259 | 8.0 | 12.9 | 0.00 | 0.00 | 0.00 | 35 | 1002.5 |
| 20260504173403 | 27 | 242 | 4.8 | 12.9 | 0.00 | 0.00 | 0.00 | 35 | 1002.5 |
| 20260504171903 | 25 | 232 | 11.3 | 16.1 | 0.00 | 0.00 | 0.00 | 37 | 1002.6 |
| 20260504171402 | 25 | 246 | 11.3 | 16.1 | 0.00 | 0.00 | 0.00 | 38 | 1002.5 |
| 20260504170902 | 25 | 206 | 12.9 | 20.9 | 0.00 | 0.00 | 0.00 | 38 | 1002.5 |
| 20260504170403 | 25 | 216 | 14.5 | 24.1 | 0.00 | 0.00 | 0.00 | 38 | 1002.5 |
| 20260504160402 | 22 | 199 | 14.5 | 29.0 | 0.00 | 0.00 | 0.00 | 42 | 1002.2 |
| 20260504150903 | 22 | 231 | 8.0 | 22.5 | 0.00 | 0.00 | 0.00 | 44 | 1002.7 |
| 20260504150403 | 21 | 180 | 16.1 | 29.0 | 0.00 | 0.00 | 0.00 | 45 | 1002.7 |
| 20260504140403 | 19 | 191 | 14.5 | 20.9 | 0.00 | 0.00 | 0.00 | 49 | 1002.9 |
| 20260504130403 | 17 | 175 | 12.9 | 20.9 | 0.00 | 0.00 | 0.00 | 54 | 1003.2 |